Lapse_Rate
7.4 7.5 7.8 7.8 7.7 7.0 6.7 6.6 6.4 6.6 6.6 6.5 6.5 6.4 6.3 6.3 6.3 6.2 6.2 6.2 6.2 6.2 6.3 6.4 6.4 6.3 6.3 6.2 6.3 6.3 6.3 6.2
7.6 7.8 8.3 7.9 7.6 7.0 6.8 6.6 6.4 6.5 6.5 6.4 6.4 6.2 6.1 6.0 6.0 6.0 6.0 6.0 6.2 6.2 6.2 6.2 6.2 6.3 6.3 6.3 6.2 6.2 6.0 5.9
7.5 8.2 8.3 7.7 7.5 7.1 6.8 6.5 6.5 6.6 6.5 6.4 6.3 6.2 6.0 5.9 5.9 5.9 6.0 6.0 6.1 6.2 6.2 6.2 6.4 6.5 6.6 6.5 6.5 6.4 6.4 6.2
7.7 8.2 8.0 7.6 7.4 7.0 6.7 6.6 6.5 6.6 6.4 6.2 6.1 5.9 5.9 5.9 5.9 5.9 6.0 6.1 6.2 6.3 6.4 6.5 6.5 6.5 6.5 6.4 6.3 6.3 6.3 6.4
7.6 8.1 7.8 7.6 7.2 6.9 6.8 6.6 6.7 6.7 6.4 6.3 6.1 5.9 5.8 5.9 6.0 6.1 6.2 6.3 6.3 6.4 6.5 6.6 6.4 6.3 6.2 6.2 6.3 6.4 6.5 6.8
7.6 7.7 7.6 7.3 7.2 6.8 6.4 6.5 6.7 6.6 6.5 6.4 6.2 6.1 6.2 6.1 6.0 6.0 6.2 6.4 6.6 6.7 6.6 6.4 6.1 6.0 6.1 6.3 6.5 6.8 6.8 6.8
7.6 7.4 7.2 7.3 7.2 7.0 6.6 6.6 6.7 6.6 6.6 6.5 6.4 6.2 6.1 6.0 6.0 6.1 6.2 6.2 6.2 6.1 6.1 6.0 6.0 6.1 6.3 6.6 6.7 6.6 6.4 6.4
7.4 7.1 7.2 7.5 7.6 7.2 6.7 6.8 6.8 6.7 6.6 6.5 6.3 6.2 6.0 5.9 6.0 5.9 6.0 6.1 6.1 6.1 6.0 6.2 6.2 6.3 6.6 6.5 6.4 6.3 6.1 6.0
7.7 7.7 7.8 7.8 7.2 6.7 6.7 6.9 6.7 6.7 6.4 6.3 6.3 6.3 6.1 6.0 5.9 5.9 6.1 6.3 6.2 6.2 6.3 6.3 6.4 6.4 6.3 6.2 6.0 6.0 5.8 6.2
7.8 7.8 7.8 7.7 7.2 6.9 7.0 6.8 6.7 6.5 6.4 6.4 6.4 6.3 6.1 6.1 6.0 6.1 6.4 6.4 6.4 6.5 6.4 6.3 6.3 6.2 6.2 6.0 5.8 5.8 6.2 6.4
7.7 7.6 7.7 7.6 7.0 6.9 7.0 6.9 6.8 6.6 6.5 6.7 6.7 6.5 6.4 6.2 6.3 6.3 6.3 6.4 6.4 6.4 6.2 6.1 6.0 6.0 5.9 5.9 6.1 6.1 6.1 6.3
7.9 7.5 7.7 7.2 6.7 6.7 6.7 6.9 6.9 6.7 6.9 6.9 6.7 6.6 6.5 6.3 6.3 6.3 6.4 6.4 6.3 6.1 6.1 6.1 6.0 5.7 5.7 5.8 5.7 5.9 6.0 6.2
7.6 7.3 7.3 7.0 6.9 6.9 7.1 7.0 6.8 6.8 6.9 6.7 6.6 6.6 6.6 6.5 6.4 6.4 6.4 6.3 6.2 6.2 6.0 5.8 5.6 5.3 5.3 5.6 6.2 6.2 6.1 6.2
8.0 7.8 7.4 7.0 6.9 6.9 6.9 6.8 6.8 6.8 6.6 6.7 6.6 6.5 6.6 6.4 6.3 6.5 6.2 6.2 6.1 6.1 5.8 5.2 4.8 5.1 5.8 6.2 6.3 6.2 6.3 6.5
7.7 7.7 7.4 6.9 6.7 6.7 6.8 6.9 6.8 6.5 6.4 6.3 6.5 6.6 6.3 6.2 6.4 6.3 6.2 6.1 6.0 5.6 5.1 5.0 5.4 6.0 6.2 6.5 6.5 6.6 7.0 7.0
7.7 7.8 7.4 6.8 6.4 6.6 6.6 7.0 6.7 6.2 6.2 6.0 5.9 6.2 6.3 6.3 6.4 6.3 6.2 6.0 5.7 5.4 5.5 5.6 6.1 6.4 6.6 6.9 7.0 7.2 7.3 7.3
7.9 7.6 7.2 6.8 6.7 7.0 6.8 6.8 6.6 6.4 6.3 6.2 6.1 6.0 6.3 6.2 6.5 6.3 6.2 6.0 5.8 5.7 5.8 6.0 6.4 6.7 7.2 7.3 7.3 7.2 7.2 7.1
6.9 6.4 6.3 6.5 6.5 6.3 6.5 6.4 6.3 6.4 6.5 6.2 6.2 6.6 6.7 6.7 6.3 6.2 6.2 6.0 5.9 5.8 6.1 6.3 6.4 6.8 7.3 7.2 7.1 7.2 7.3 7.0
5.9 6.1 6.0 6.1 6.5 6.3 6.2 6.3 6.3 6.6 6.2 6.1 6.8 6.6 6.6 6.5 6.2 5.9 6.1 6.0 6.0 6.1 6.3 6.2 6.6 6.9 7.1 6.9 7.0 7.2 7.1 6.8
Wind_Speed
8 7 6 6 5 6 7 5 6 7 6 7 8 9 10 13 12 13 14 13 14 12 10 11 11 5 6 6 6 6 3 8
9 8 6 6 4 5 5 6 4 4 2 4 4 4 3 5 11 13 14 14 14 13 10 10 11 7 7 8 5 7 3 9
11 10 7 6 6 4 5 6 6 3 3 3 3 3 4 4 8 10 13 14 15 13 11 6 8 5 7 6 7 5 3 6
15 14 9 7 8 7 6 5 6 4 5 6 5 4 3 3 3 3 10 13 13 12 10 8 7 5 5 6 8 9 7 7
14 14 10 9 7 6 6 6 6 5 5 5 4 3 3 2 2 2 5 12 11 11 11 10 8 6 6 6 7 6 6 6
18 15 12 8 8 7 6 6 6 5 6 7 7 7 4 3 3 4 5 6 10 10 11 10 8 7 6 7 7 7 5 5
16 14 12 10 8 7 6 7 5 6 6 6 8 8 6 4 3 3 3 3 5 11 13 12 11 9 6 6 7 9 7 6
18 18 15 13 12 9 7 7 6 6 7 6 7 7 7 7 5 3 4 3 4 6 10 9 7 9 11 11 7 8 7 7
19 19 16 15 13 10 8 8 8 7 7 6 6 6 5 4 5 3 3 4 4 9 10 10 10 12 12 10 7 6 6 6
18 18 16 15 14 12 11 9 8 7 7 6 6 5 6 6 6 5 4 4 5 8 10 8 8 10 11 9 6 7 6 5
16 16 16 14 13 11 10 10 10 8 7 6 6 5 6 7 7 7 6 5 8 7 7 7 8 10 10 9 5 8 7 6
14 14 14 14 12 12 11 10 10 8 6 6 7 5 5 7 7 6 6 7 7 5 5 4 6 8 9 7 6 7 7 6
13 14 14 13 12 11 11 9 9 7 6 7 6 6 7 8 7 6 7 6 7 6 6 5 7 6 9 7 7 7 8 8
13 13 13 13 12 11 10 10 9 7 8 8 7 7 7 8 7 6 6 5 5 7 6 6 7 7 6 5 6 7 7 7
14 14 14 13 12 12 12 10 9 9 10 9 8 8 8 7 6 7 6 7 5 6 4 6 6 6 7 7 7 7 7 7
17 16 15 15 15 14 14 13 12 12 12 10 8 8 9 8 8 6 6 6 6 6 4 6 6 4 7 7 7 7 7 8
15 16 21 20 18 16 17 15 14 12 11 11 10 9 9 8 7 7 7 7 6 5 5 6 4 6 16 16 9 8 10 9
16 19 18 17 16 14 14 15 14 13 12 11 10 11 9 8 8 7 8 7 5 5 5 4 6 6 17 15 12 8 8 8
17 14 13 14 13 15 16 16 14 13 12 12 11 11 11 9 8 8 7 5 4 4 4 3 4 8 15 13 13 9 7 7
Wind_Direction
164 153 143 134 137 120 110 99 104 106 105 97 82 70 60 52 47 44 36 31 33 35 33 27 24 28 24 15 10 357 325 337
161 156 149 140 132 121 118 114 106 125 112 103 75 68 53 48 50 43 38 33 31 33 30 25 22 28 17 10 357 358 345 352
168 162 159 165 145 124 103 100 103 112 110 112 119 121 79 83 62 50 40 35 31 35 29 20 17 21 19 13 18 2 350 356
172 172 172 159 152 146 126 111 100 101 114 111 99 99 83 53 31 41 37 40 35 31 28 26 22 26 20 11 15 14 1 2
175 173 169 165 154 138 131 115 101 93 104 108 110 114 112 70 66 54 42 43 34 29 31 31 30 28 29 24 24 21 12 2
177 174 165 152 143 139 120 103 91 91 92 100 104 98 99 112 82 72 49 36 38 36 38 33 32 27 27 33 31 27 28 25
170 159 149 145 134 131 132 120 104 92 93 98 108 117 120 108 88 70 43 27 30 32 36 32 26 18 21 27 35 39 28 35
165 162 158 152 153 148 130 127 118 113 103 102 109 114 114 111 106 90 61 34 30 28 35 31 25 15 31 28 32 33 30 31
172 164 157 156 152 146 139 142 131 125 121 125 120 121 115 109 107 101 86 71 46 37 39 34 36 35 49 41 35 35 27 27
168 158 156 155 154 155 152 142 136 136 136 133 125 125 117 111 96 83 70 52 63 48 43 35 33 48 50 47 40 41 26 30
161 157 154 156 155 149 140 146 146 143 147 136 134 127 113 108 101 94 81 64 56 51 36 25 39 48 49 58 39 47 32 23
159 154 150 149 148 147 147 147 146 149 151 134 127 117 105 99 96 90 83 71 56 53 43 37 48 50 43 50 55 37 38 27
152 147 146 147 149 149 151 149 148 153 146 130 114 114 113 102 98 88 82 81 63 60 38 37 68 59 49 55 58 46 40 34
145 149 156 152 153 154 156 150 150 150 138 131 126 124 108 103 105 99 84 78 59 58 47 61 64 62 61 62 57 56 43 43
158 158 160 158 160 163 160 154 152 150 139 136 135 126 115 108 107 93 90 75 74 56 35 84 81 75 70 65 57 57 48 44
172 165 165 168 172 171 164 164 159 153 143 135 135 123 118 116 108 108 99 84 68 58 53 83 103 90 76 62 54 54 53 51
183 185 174 178 177 172 172 169 158 146 143 134 134 128 120 116 120 116 99 83 70 62 85 75 84 79 78 74 66 64 58 46
178 204 196 178 176 168 163 157 149 148 136 139 141 132 130 125 125 121 104 88 77 68 48 79 86 80 81 78 74 62 59 50
210 189 190 181 161 159 157 151 143 139 148 145 147 137 131 128 122 111 100 93 89 70 42 15 82 83 83 85 79 62 54 45